Weather Roundup
Issued by NWS Corpus Christi, TX

Home | Current Version | Previous Version | Text Only | Print | Product List | Glossary On
Versions: 1 2 3 4 5 6 7 8 9 10 11 12 13 14 15 16 17 18 19 20 21 22 23 24 25 26 27 28 29 30 31 32 33 34 35 36 37 38 39 40 41 42 43 44 45 46 47 48 49 50
000
ASUS44 KCRP 221010
HRRCRP

SOUTH TEXAS REGIONAL WEATHER ROUNDUP
NATIONAL WEATHER SERVICE CORPUS CHRISTI TX
500 AM CDT FRI AUG 22 2014


TXZ229>244-221100-
...CORPUS CHRISTI AREA OBSERVATIONS...

CITY           SKY/WX    TMP DP  RH WIND       PRES   REMARKS
CORPUS CHRISTI PTCLDY    81  78  91 S13       30.02S
NAS CORPUS CHR CLEAR     82  80  94 S15G21    30.01F HX  94
ROCKPORT       PTCLDY    83  78  85 S10       30.01F HX  93
KINGSVILLE NAS PTCLDY    81  80  97 S10       30.01F HX  91
ALICE          CLOUDY    82  77  84 S14       30.01S HX  90
FALFURRIAS     PTCLDY    85  73  68 SE8       30.01F HX  92
$$

...VICTORIA AREA OBSERVATIONS...

CITY           SKY/WX    TMP DP  RH WIND       PRES   REMARKS
VICTORIA       CLOUDY    83  79  88 S7        30.04S HX  94
BEEVILLE       FAIR      81  77  86 S12       30.03S
PLEASANTON     PTCLDY    79  73  80 SE7       30.04S
SAN ANTONIO    MOCLDY    81  74  79 S10       30.05S
$$

...LAREDO AREA OBSERVATIONS...

CITY           SKY/WX    TMP DP  RH WIND       PRES   REMARKS
LAREDO         CLEAR     81  71  71 SE15      30.02S
COTULLA        CLEAR     79  70  74 SE10      30.01S
DEL RIO        CLEAR     83  67  58 SE8       29.98S
MCALLEN        CLEAR     79  75  87 SE9       30.02S
HEBBRONVILLE   MOCLDY    78  74  87 SE13G18   30.03S
$$

...OTHER TEXAS OBSERVATIONS...

CITY           SKY/WX    TMP DP  RH WIND       PRES   REMARKS
BROWNSVILLE    CLEAR     78  77  96 S5        30.02F
HOUSTON        PTCLDY    79  76  90 S5        30.05S
COL. STATION   MOCLDY    79  76  90 S7        30.05R
AUSTIN         PTCLDY    80  74  81 S10       30.04R
WACO           PTCLDY    79  74  84 S18       30.03R
FORT WORTH     CLEAR     82  72  71 S17       30.00R
WICHITA FALLS  CLEAR     79  62  56 S10       29.96R
LUBBOCK        CLEAR     76  63  64 S9        30.04R
EL PASO        LGT RAIN  69  64  84 SE3       30.11S
$$

...MARINE OBSERVATIONS...

STATION/POSITION TIME  SKY/WX   TEMP    WIND        PRES    VSBY  WAVE   SWELL
                                AIR SEA DIR/SP/G                  HT/PER HT/PER
                 (UTC)          (F)     (DEG/KT/KT) (MB)    (MI)  (FT/S) (FT/S)
PORT ARANSAS     1000            81 83  170/ 12/ 14 1017.0S
BUOY 90 E PORT A 1000            84 85  170/ 14/ 17 1017.2F         3/ 7   2/ 7
BUOY 45 SE BAFFI 1000            84 84  170/ 14/ 16 1016.1F         4/ 8   2/ 8
BUOY 200 E PT IS 1000            85 86  120/  8/  8 1016.9F         2/ 7   2/ 7
BUOY 15 E GALVES NOT AVBL
$$


USA.gov is the U.S. government's official web portal to all federal, state and local government web resources and services.